Centrepoint Space Station
Centrepoint Mining
Centrepoint Healthcare
Centrepoint Marketplace
Greetings, Guest Current Nova Crystal exchange rate: 246,120 : 1 Year 25 Day 174, 00:30:32 CGT
Katunda, Nelona 27
Browse

The Star Wars Combine Banner Exchange
Daily Fluctuations Battle Armour
Battle Armour RMP: 2,868 Credits MAX78,947 Credits Y 24 D 328, 21:17:07
#136     MIN30,000 CreditsY 25 D 49, 17:34:20
Mult:17     LAST43,887 CreditsY 25 D 63, 15:03:12
 
 AVG48,277 Credits
 
Daily Fluctuations Camouflage Scout Armour
Camouflage Scout Armour RMP: 5,488 Credits MAX125,000 Credits Y 22 D 279, 11:21:07
#8     MIN125,000 CreditsY 22 D 279, 11:21:07
Mult:23     LAST125,000 CreditsY 22 D 279, 11:21:07
 
 AVG125,000 Credits
 
Daily Fluctuations Camouflage Scout Helmet
Camouflage Scout Helmet RMP: 1,352 Credits MAX125,000 Credits Y 22 D 279, 11:21:07
#8     MIN125,000 CreditsY 22 D 279, 11:21:07
Mult:92     LAST125,000 CreditsY 22 D 279, 11:21:07
 
 AVG125,000 Credits
 
Daily Fluctuations Ceremonial Armour
Ceremonial Armour RMP: 2,569 Credits MAX20,000 Credits Y 22 D 5, 19:49:27
#1     MIN20,000 CreditsY 22 D 5, 19:49:27
Mult:8     LAST20,000 CreditsY 22 D 5, 19:49:27
 
 AVG20,000 Credits
 
Daily Fluctuations Ceremonial Combat Armour
Ceremonial Combat Armour RMP: 44,138 Credits MAX100,000 Credits Y 21 D 338, 08:22:03
#2     MIN100,000 CreditsY 21 D 338, 08:22:03
Mult:2     LAST100,000 CreditsY 21 D 338, 08:22:03
 
 AVG100,000 Credits
 
Daily Fluctuations Clone Trooper Armour
Clone Trooper Armour RMP: 6,340 Credits MAX6,000,000 Credits Y 25 D 74, 14:33:30
#3     MIN5,000,000 CreditsY 25 D 112, 04:01:21
Mult:894     LAST5,000,000 CreditsY 25 D 112, 04:01:21
 
 AVG5,666,667 Credits
 
Daily Fluctuations Clone Trooper Helmet
Clone Trooper Helmet RMP: 4,800 Credits MAX10,080,645 Credits Y 25 D 16, 14:10:59
#5     MIN5,000,000 CreditsY 25 D 112, 04:01:21
Mult:1,410     LAST5,000,000 CreditsY 25 D 112, 04:01:21
 
 AVG6,766,129 Credits
 
Daily Fluctuations Combat Armour
Combat Armour RMP: 6,444 Credits MAX50,000 Credits Y 23 D 330, 15:17:19
#3     MIN2,500 CreditsY 24 D 34, 09:58:20
Mult:5     LAST2,500 CreditsY 24 D 34, 09:58:20
 
 AVG34,167 Credits
 
Daily Fluctuations Corellian Powersuit Armour
Corellian Powersuit Armour RMP: 2,212 Credits MAX100,000 Credits Y 25 D 111, 03:04:05
#12     MIN100,000 CreditsY 25 D 111, 03:04:05
Mult:45     LAST100,000 CreditsY 25 D 111, 03:04:05
 
 AVG100,000 Credits
 
Daily Fluctuations Corellian Powersuit Helmet
Corellian Powersuit Helmet RMP: 1,080 Credits MAX100,000 Credits Y 25 D 111, 03:04:05
#12     MIN100,000 CreditsY 25 D 111, 03:04:05
Mult:93     LAST100,000 CreditsY 25 D 111, 03:04:05
 
 AVG100,000 Credits
 
Daily Fluctuations Energy Shield
Energy Shield RMP: 3,076 Credits MAX3,649,635 Credits Y 24 D 308, 14:24:43
#12     MIN3,649,635 CreditsY 24 D 308, 14:24:43
Mult:1,186     LAST3,649,635 CreditsY 24 D 308, 14:24:43
 
 AVG3,649,635 Credits
 
Daily Fluctuations Falleen Federation Royal Amour
Falleen Federation Royal Amour RMP: 3,109 Credits MAX40,000,000 Credits Y 24 D 123, 04:37:14
#1     MIN40,000,000 CreditsY 24 D 123, 04:37:14
Mult:12,866     LAST40,000,000 CreditsY 24 D 123, 04:37:14
 
 AVG40,000,000 Credits
 
Daily Fluctuations Falleen Federation Royal Helmet
Falleen Federation Royal Helmet RMP: 1,132 Credits MAX40,000,000 Credits Y 24 D 123, 04:37:14
#1     MIN40,000,000 CreditsY 24 D 123, 04:37:14
Mult:35,336     LAST40,000,000 CreditsY 24 D 123, 04:37:14
 
 AVG40,000,000 Credits
 
Daily Fluctuations Flack Jacket
Flack Jacket RMP: 1,080 Credits MAX31,940 Credits Y 24 D 239, 02:45:42
#2     MIN31,940 CreditsY 24 D 239, 02:45:42
Mult:30     LAST31,940 CreditsY 24 D 239, 02:45:42
 
 AVG31,940 Credits
 
Daily Fluctuations Flak Helmet
Flak Helmet RMP: 976 Credits MAX50,000 Credits Y 21 D 338, 08:22:03
#1     MIN50,000 CreditsY 21 D 338, 08:22:03
Mult:51     LAST50,000 CreditsY 21 D 338, 08:22:03
 
 AVG50,000 Credits
 
Daily Fluctuations Handheld Shield
Handheld Shield RMP: 3,512 Credits MAX20,000 Credits Y 21 D 25, 23:06:48
#1     MIN20,000 CreditsY 21 D 25, 23:06:48
Mult:6     LAST20,000 CreditsY 21 D 25, 23:06:48
 
 AVG20,000 Credits
 
Daily Fluctuations Heavy Battle Armour
Heavy Battle Armour RMP: 6,008 Credits MAX8,470,588 Credits Y 24 D 300, 02:11:51
#30     MIN7,500,000 CreditsY 24 D 355, 14:55:41
Mult:1,258     LAST7,500,000 CreditsY 24 D 355, 14:55:41
 
 AVG7,557,353 Credits
 
Daily Fluctuations Heavy Battle Helmet
Heavy Battle Helmet RMP: 2,816 Credits MAX8,000,000 Credits Y 24 D 302, 15:03:41
#31     MIN5,040,323 CreditsY 25 D 16, 14:10:59
Mult:2,616     LAST5,040,323 CreditsY 25 D 16, 14:10:59
 
 AVG7,366,453 Credits
 
Daily Fluctuations Hide Armour
Hide Armour RMP: 7,300 Credits MAX1,053 Credits Y 22 D 289, 23:03:32
#1     MIN1,053 CreditsY 22 D 289, 23:03:32
Mult:0     LAST1,053 CreditsY 22 D 289, 23:03:32
 
 AVG1,053 Credits
 
Daily Fluctuations Imperial Royal Armour
Imperial Royal Armour RMP: 5,520 Credits MAX40,000,000 Credits Y 24 D 330, 07:17:33
#1     MIN40,000,000 CreditsY 24 D 330, 07:17:33
Mult:7,246     LAST40,000,000 CreditsY 24 D 330, 07:17:33
 
 AVG40,000,000 Credits
 
Daily Fluctuations Imperial Royal Helmet
Imperial Royal Helmet RMP: 1,840 Credits MAX40,000,000 Credits Y 24 D 330, 07:17:33
#1     MIN40,000,000 CreditsY 24 D 330, 07:17:33
Mult:21,739     LAST40,000,000 CreditsY 24 D 330, 07:17:33
 
 AVG40,000,000 Credits
 
Daily Fluctuations Kinetic Armour
Kinetic Armour RMP: 2,432 Credits MAX77,043 Credits Y 22 D 250, 15:35:26
#2     MIN77,043 CreditsY 22 D 250, 15:35:26
Mult:32     LAST77,043 CreditsY 22 D 250, 15:35:26
 
 AVG77,043 Credits
 
Daily Fluctuations Rebel Camouflage Gear
Rebel Camouflage Gear RMP: 2,380 Credits MAX3,400,000 Credits Y 23 D 304, 12:13:11
#1     MIN3,400,000 CreditsY 23 D 304, 12:13:11
Mult:1,429     LAST3,400,000 CreditsY 23 D 304, 12:13:11
 
 AVG3,400,000 Credits
 
Daily Fluctuations Rebel Camouflage Helmet
Rebel Camouflage Helmet RMP: 1,352 Credits MAX3,300,000 Credits Y 23 D 304, 12:13:11
#1     MIN3,300,000 CreditsY 23 D 304, 12:13:11
Mult:2,441     LAST3,300,000 CreditsY 23 D 304, 12:13:11
 
 AVG3,300,000 Credits
 
Daily Fluctuations Rebel Snow Armour
Rebel Snow Armour RMP: 1,840 Credits MAX4,000,000 Credits Y 23 D 276, 17:41:22
#1     MIN4,000,000 CreditsY 23 D 276, 17:41:22
Mult:2,174     LAST4,000,000 CreditsY 23 D 276, 17:41:22
 
 AVG4,000,000 Credits
 
Daily Fluctuations Rebel Snow Helmet
Rebel Snow Helmet RMP: 1,352 Credits MAX4,000,000 Credits Y 23 D 276, 17:41:22
#1     MIN4,000,000 CreditsY 23 D 276, 17:41:22
Mult:2,959     LAST4,000,000 CreditsY 23 D 276, 17:41:22
 
 AVG4,000,000 Credits
 
Daily Fluctuations Rebel Trooper Armour
Rebel Trooper Armour RMP: 3,680 Credits MAX4,000,000 Credits Y 23 D 304, 12:38:17
#1     MIN4,000,000 CreditsY 23 D 304, 12:38:17
Mult:1,087     LAST4,000,000 CreditsY 23 D 304, 12:38:17
 
 AVG4,000,000 Credits
 
Daily Fluctuations Rebel Trooper Helmet
Rebel Trooper Helmet RMP: 4,572 Credits MAX2,000,000 Credits Y 18 D 157, 16:04:47
#1     MIN2,000,000 CreditsY 18 D 157, 16:04:47
Mult:437     LAST2,000,000 CreditsY 18 D 157, 16:04:47
 
 AVG2,000,000 Credits
 
Daily Fluctuations Republic Commando Armour
Republic Commando Armour RMP: 5,488 Credits MAX50,000,000 Credits Y 11 D 87, 07:57:13
#1     MIN50,000,000 CreditsY 11 D 87, 07:57:13
Mult:9,111     LAST50,000,000 CreditsY 11 D 87, 07:57:13
 
 AVG50,000,000 Credits
 
Daily Fluctuations Republic Commando Helmet
Republic Commando Helmet RMP: 6,420 Credits MAX50,000,000 Credits Y 11 D 87, 07:57:13
#1     MIN50,000,000 CreditsY 11 D 87, 07:57:13
Mult:7,788     LAST50,000,000 CreditsY 11 D 87, 07:57:13
 
 AVG50,000,000 Credits
 
Daily Fluctuations Riot Shield
Riot Shield RMP: 1,892 Credits MAX78,947 Credits Y 24 D 328, 21:17:07
#19     MIN78,947 CreditsY 24 D 328, 21:17:07
Mult:42     LAST78,947 CreditsY 24 D 328, 21:17:07
 
 AVG78,947 Credits
 
Daily Fluctuations Snow Trooper Armour
Snow Trooper Armour RMP: 3,628 Credits MAX4,000,000 Credits Y 24 D 81, 21:35:22
#1     MIN4,000,000 CreditsY 24 D 81, 21:35:22
Mult:1,103     LAST4,000,000 CreditsY 24 D 81, 21:35:22
 
 AVG4,000,000 Credits
 
Daily Fluctuations Snow Trooper Helmet
Snow Trooper Helmet RMP: 1,788 Credits MAX4,000,000 Credits Y 24 D 81, 21:35:22
#1     MIN4,000,000 CreditsY 24 D 81, 21:35:22
Mult:2,237     LAST4,000,000 CreditsY 24 D 81, 21:35:22
 
 AVG4,000,000 Credits
 
Daily Fluctuations Storm Trooper Armour
Storm Trooper Armour RMP: 3,628 Credits MAX3,250,000 Credits Y 24 D 92, 15:55:52
#4     MIN3,000,000 CreditsY 24 D 75, 09:55:50
Mult:844     LAST3,250,000 CreditsY 24 D 92, 15:55:52
 
 AVG3,062,500 Credits
 
Daily Fluctuations Storm Trooper Helmet
Storm Trooper Helmet RMP: 540 Credits MAX3,217,500 Credits Y 24 D 92, 15:55:52
#4     MIN3,000,000 CreditsY 24 D 75, 09:55:50
Mult:5,656     LAST3,217,500 CreditsY 24 D 92, 15:55:52
 
 AVG3,054,375 Credits
 
Daily Fluctuations SWLTR Helmet
SWLTR Helmet RMP: 1,352 Credits MAX10,000 Credits Y 22 D 5, 19:49:27
#2     MIN10,000 CreditsY 22 D 5, 19:49:27
Mult:7     LAST10,000 CreditsY 22 D 5, 19:49:27
 
 AVG10,000 Credits
 
Daily Fluctuations SWLTR Suit
SWLTR Suit RMP: 4,980 Credits MAX30,000 Credits Y 21 D 338, 08:22:03
#1     MIN30,000 CreditsY 21 D 338, 08:22:03
Mult:6     LAST30,000 CreditsY 21 D 338, 08:22:03
 
 AVG30,000 Credits
 
Daily Fluctuations Tactical Helmet
Tactical Helmet RMP: 976 Credits MAX78,947 Credits Y 24 D 328, 21:17:07
#136     MIN30,000 CreditsY 25 D 49, 17:34:20
Mult:49     LAST43,887 CreditsY 25 D 63, 15:03:12
 
 AVG48,277 Credits
 
The design and programming of this site and its affiliated sites is © 2005 - 2024 by Togan Jano disclaimer